Theta_e
284 283 282 280 280 280 280 280 280 281 282 282 283 283 283 283 284 283 284 284 284 284
283 281 280 279 279 279 279 278 279 280 281 282 283 283 283 282 282 283 283 283 284 284
281 280 279 279 278 278 278 279 279 280 281 281 282 282 282 282 281 282 283 282 282 283
279 279 278 278 277 277 278 278 278 279 280 280 281 282 282 281 280 280 281 282 282 282
278 277 277 276 276 277 277 277 278 279 279 280 280 282 281 280 279 279 279 280 280 281
277 277 276 276 276 276 275 276 277 278 278 278 279 281 281 280 278 279 279 279 279 280
276 276 275 275 274 274 274 274 274 276 276 277 279 281 281 279 278 279 279 279 280 280
276 275 273 273 273 273 273 274 273 274 275 276 278 280 280 278 277 278 277 278 279 281
274 272 272 272 272 272 272 273 273 273 274 275 277 281 281 278 277 277 276 277 279 280
272 271 271 271 272 271 272 273 272 273 274 275 276 281 280 277 277 276 276 277 278 279
271 270 270 271 271 272 273 273 274 273 274 275 276 280 280 277 276 276 276 277 278 278
271 270 270 270 271 273 274 274 274 274 273 273 274 279 279 277 276 275 276 277 277 279
271 270 270 271 272 273 274 274 275 274 274 272 273 277 279 278 276 275 276 277 277 278
271 271 271 272 273 273 274 273 273 273 273 273 273 275 277 278 276 274 275 275 275 276
Wind_Speed
7 4 3 3 2 3 3 4 7 7 8 10 11 11 11 8 8 11 10 14 12 10
7 6 5 5 3 2 3 4 6 6 8 9 10 11 11 8 9 10 10 10 12 10
9 7 6 5 3 3 3 4 5 6 7 9 10 11 11 9 9 11 8 9 12 12
9 8 6 5 4 3 3 4 5 5 7 8 10 11 10 11 11 12 11 11 12 13
10 9 8 6 4 3 4 3 4 4 6 8 10 10 11 11 11 11 12 12 12 12
11 9 8 6 5 4 4 3 4 4 6 8 9 10 11 11 10 10 11 11 11 12
10 10 8 7 6 4 3 3 4 5 5 6 7 11 10 11 9 10 10 10 11 11
10 9 9 8 6 4 4 3 2 3 4 5 6 8 11 11 9 9 10 10 11 10
11 9 9 8 7 5 4 3 2 3 4 5 5 15 15 13 7 8 9 9 10 11
11 10 9 9 7 6 4 4 2 2 4 5 7 16 15 12 6 7 8 9 10 10
12 11 10 9 7 6 5 4 3 2 4 5 5 15 14 9 6 6 7 8 9 12
13 12 11 10 9 6 6 5 3 2 3 5 5 14 13 8 5 6 5 6 8 11
13 13 11 10 9 7 6 5 4 3 3 4 5 12 13 9 5 6 5 5 7 13
13 13 11 11 8 7 6 5 3 3 3 4 4 6 11 12 6 5 5 5 6 7
Wind_Direction
155 147 121 89 53 31 11 0 358 359 3 354 351 350 345 344 344 343 339 343 344 340
155 148 131 108 78 43 20 1 347 2 6 357 351 350 347 349 349 347 344 342 341 343
151 140 127 114 100 72 26 4 359 9 12 358 353 353 352 351 350 345 348 352 345 348
148 140 133 122 114 86 50 12 5 11 13 2 357 353 352 355 355 349 345 355 348 349
147 144 139 130 119 95 64 23 1 6 17 10 358 351 350 356 356 351 347 352 350 351
154 149 133 125 116 89 63 11 6 7 19 15 349 346 355 354 356 355 349 348 350 349
155 146 137 131 123 108 86 55 18 353 8 12 333 352 357 355 358 1 351 349 351 351
136 129 130 131 130 116 91 79 11 343 11 12 353 348 4 354 358 4 355 352 355 352
133 142 140 138 137 124 113 106 55 355 22 16 359 343 9 359 4 10 2 356 356 351
143 146 147 142 140 131 126 101 84 6 33 27 357 346 8 5 17 22 9 4 2 348
148 146 145 143 146 142 139 128 94 35 36 24 4 352 8 7 26 36 22 1 2 346
152 148 151 150 152 144 141 134 117 66 48 31 6 352 11 10 30 31 29 3 358 353
151 151 154 149 151 153 147 134 137 113 72 51 7 354 13 21 23 28 10 14 10 5
149 149 151 145 145 148 145 136 131 128 101 68 16 353 17 22 35 22 9 9 7 360